Pagina principale
METAR-TAF:

METAR-TAF

Aeroporti :

Alpnach, Svizzera

latitudine: 46-56-19N, longitudine: 8-17-03E, altezza: 440 m

Osservazione

Il bollettino è stato emesso 40 minuti fa, alle 01:20 UTC
Vento 3 kt da est/nord-est
Temperature 11°C
Umidità 100%
Pressione 1022 hPa
Visibilità 10 km o più
Nuvoloso ad un'altezza di 4100 ft
Cielo coperto ad un'altezza di 5500 ft
pioggia debole

METAR: LSMA 280120Z AUTO 07003KT 9999NDV -RA BKN041 OVC055 11/11 Q1022 RMK

Ora: 04:00 (02:00 UTC)


TAF: mancante

Osservazioni e previsioni meteorologiche di più di 4000 aeroporti (messaggi METAR e TAF).

Le stazioni disponibili sono rappresentate dai dischi gialli e rossi sulla carta.

Puntare il mouse per vedere il nome della stazione.

Clicca sopra per visualizzare le osservazioni e previsioni meteorologiche.

Per cambiare la mappa : fare clic sui pulsanti verdi con una croce nera per ingrandire, il pulsante verde con un trattino per diminuire, o sulla freccia verde per le mappe adiacenti.


METAR-TAF: